Theta_e
324 324 325 324 323 322 322 322 320 320 321 322 322 322 322 320 318 320 314 315 317 329 327 318 317 317 315 307 307 305 294 292 296 298 299 306 305 309 310 307 308 319 327 330 338
324 325 325 324 322 322 322 321 320 320 320 321 321 321 321 319 316 317 317 328 329 328 317 315 313 314 306 306 305 301 294 297 303 303 303 306 304 303 303 303 307 315 334 336 336
324 324 324 323 323 322 321 320 320 320 320 321 321 321 319 317 316 311 326 328 327 324 316 316 316 313 306 305 305 303 298 303 305 305 304 302 304 305 302 301 308 310 328 332 332
323 322 323 323 323 322 321 319 319 320 320 320 321 321 318 317 306 311 326 329 327 319 316 315 313 308 304 303 307 300 305 305 306 307 304 302 305 305 302 307 310 314 330 331 329
321 321 322 322 322 321 320 319 319 319 319 320 321 321 316 314 314 318 331 325 320 318 315 313 310 308 304 306 306 304 305 308 309 307 304 307 304 305 305 311 312 313 313 324 327
321 321 321 321 321 321 319 318 318 318 318 319 321 319 314 307 319 319 320 318 317 314 313 313 310 311 308 307 305 308 307 307 308 307 306 305 305 304 307 311 312 313 309 311 311
321 320 320 321 320 320 319 318 317 317 318 319 321 316 312 312 319 318 321 317 316 315 312 314 313 309 309 306 311 308 303 305 307 306 305 307 301 303 308 311 309 309 310 311 312
321 320 319 319 319 318 318 317 316 317 318 320 319 314 311 323 316 319 317 317 317 316 314 315 314 309 307 310 308 303 301 295 304 306 306 303 296 304 307 309 307 308 306 311 312
320 320 319 318 318 317 316 316 316 318 319 320 313 314 311 321 316 318 317 315 316 316 315 317 312 307 307 301 299 300 293 297 300 305 303 300 297 304 306 307 306 307 308 308 307
320 319 319 318 318 316 315 315 318 318 321 321 318 309 315 315 319 317 316 317 313 312 311 309 305 300 300 298 292 294 294 292 293 299 300 297 297 302 303 303 303 304 305 306 307
319 319 319 318 318 316 314 316 315 312 315 311 312 312 315 318 318 313 316 314 312 308 300 305 298 296 299 302 300 298 295 294 296 301 299 298 297 299 302 303 302 303 303 304 308
318 318 318 318 318 317 313 315 314 313 305 315 315 315 318 310 304 308 310 305 305 300 303 299 295 303 305 303 301 299 296 295 299 303 300 296 296 299 302 303 303 304 301 306 307
317 318 318 317 317 313 313 319 321 319 305 312 316 313 309 308 305 304 306 304 302 300 299 296 301 305 302 299 298 297 296 295 295 298 298 297 294 297 302 303 304 303 304 307 308
317 317 316 316 310 314 315 325 321 319 299 305 307 306 307 308 304 309 308 303 301 299 301 299 305 302 300 298 300 294 301 299 297 293 288 296 284 295 299 301 301 302 302 305 308
315 316 314 315 313 316 319 320 319 316 284 307 304 312 309 304 305 304 309 304 299 301 299 298 300 300 299 300 302 298 301 297 295 292 289 292 286 292 298 298 299 300 303 303 305
315 315 314 314 313 316 320 319 317 296 286 303 304 303 303 304 304 304 304 306 304 300 300 299 304 301 300 302 301 302 297 296 294 291 284 292 289 290 294 296 300 303 305 305 304
314 314 315 320 311 317 319 314 294 287 303 301 302 304 301 301 301 301 299 297 294 292 294 300 301 302 304 297 300 298 292 285 284 284 284 295 291 292 298 300 303 303 304 304 305
313 312 315 319 320 320 315 302 288 295 297 305 305 305 299 301 300 300 298 295 299 299 295 292 291 300 303 299 296 295 293 286 281 281 286 294 287 292 300 304 306 306 305 305 304
312 314 317 318 322 320 308 293 289 295 302 301 302 299 300 301 301 300 298 297 301 302 296 295 296 304 303 303 300 295 291 295 289 289 284 288 292 297 300 299 302 303 303 301 301
313 313 314 321 322 316 304 294 296 303 304 303 296 300 296 298 298 297 299 304 303 304 302 298 291 301 304 303 301 296 298 288 289 282 280 286 287 288 294 297 300 300 300 300 300
311 304 315 322 318 308 296 297 300 305 305 301 300 299 300 298 300 297 301 306 304 302 302 298 293 294 298 296 295 296 291 292 291 288 280 278 283 295 295 297 298 300 300 298 298
307 298 316 320 304 304 299 302 304 304 306 305 304 302 300 301 299 299 298 303 306 304 296 298 294 287 292 299 302 300 296 294 287 285 286 282 285 299 298 298 299 297 298 297 296
301 302 313 316 298 298 302 302 304 302 303 303 302 303 304 300 295 298 299 303 304 303 298 298 292 285 290 295 298 294 297 297 296 291 287 283 284 297 298 297 298 295 296 297 296
299 289 296 305 307 302 299 299 299 305 304 304 302 303 300 299 301 297 297 300 301 303 302 302 295 292 288 290 295 291 294 296 294 284 287 286 288 293 296 296 296 296 296 296 296
299 291 296 288 295 300 302 300 298 298 304 305 299 300 299 294 296 296 299 296 297 301 299 297 289 293 294 296 296 294 293 293 291 292 288 290 291 294 294 294 295 296 297 297 297
290 292 297 296 299 298 297 299 298 300 299 299 299 301 299 297 297 294 298 295 294 294 295 296 288 291 289 294 294 291 293 293 293 293 292 293 292 299 298 297 296 296 296 294 296
297 300 298 295 296 295 295 298 300 302 302 304 302 300 298 299 304 303 302 301 299 294 291 291 287 286 285 291 290 285 289 291 292 294 293 289 294 297 295 296 296 293 293 295 296
Wind_Speed
8 8 9 10 11 12 13 13 13 15 16 17 19 21 22 19 21 3 2 2 3 5 4 7 6 9 10 7 7 2 1 6 8 4 2 4 4 1 3 3 2 7 11 12 19
7 8 8 11 11 12 14 14 14 15 17 18 19 21 23 16 5 4 4 3 3 4 5 7 11 10 4 8 6 4 3 8 10 5 3 4 2 2 3 4 5 5 17 20 18
7 9 9 10 11 12 13 15 15 16 17 18 18 22 24 14 4 2 4 7 7 2 3 6 10 9 6 5 8 8 9 9 8 4 5 5 9 3 5 5 5 3 15 17 15
8 8 10 10 12 12 12 14 16 17 17 18 19 20 25 2 3 3 8 9 7 2 4 5 7 5 6 7 8 6 10 6 6 5 3 3 7 9 5 6 4 10 18 16 15
8 8 10 10 12 13 13 12 17 19 16 17 19 17 10 6 4 6 7 9 5 3 6 8 7 6 5 7 9 4 5 6 9 8 4 2 7 7 8 10 3 6 7 14 15
7 6 9 10 11 13 15 14 17 18 16 14 16 15 2 4 2 6 5 5 8 4 8 6 3 7 5 6 5 8 9 8 7 9 4 5 7 3 9 9 6 6 1 5 5
8 7 7 9 11 12 15 18 19 18 14 12 11 4 5 10 5 6 5 4 5 4 5 5 7 6 8 8 5 9 9 11 14 8 8 8 7 7 10 8 5 4 6 6 3
8 8 7 9 11 13 15 19 23 21 14 12 5 1 7 4 4 7 4 6 4 6 3 3 5 4 3 6 6 6 5 1 14 15 8 8 9 9 7 11 8 8 3 7 7
7 8 7 8 10 12 16 21 28 22 13 4 3 4 8 1 3 2 3 4 5 4 4 5 2 4 5 3 5 3 5 3 11 7 6 5 6 7 2 7 8 7 8 7 6
8 8 8 7 9 11 17 24 25 9 3 5 5 3 5 4 8 1 1 4 3 6 7 3 3 3 4 1 4 4 4 5 3 4 2 5 7 8 8 6 9 9 9 7 9
9 9 8 7 8 9 9 8 7 5 5 5 13 19 17 10 6 4 7 8 5 3 4 7 2 7 11 7 3 4 4 7 7 9 5 6 6 10 10 9 9 9 8 8 11
10 8 6 7 7 8 3 4 3 1 11 13 25 20 20 2 4 6 3 3 6 7 6 4 6 11 6 2 2 4 5 8 8 7 7 7 10 11 14 14 12 14 6 14 10
10 9 7 6 5 3 5 8 5 9 4 11 9 2 7 6 5 3 6 6 5 7 8 7 4 5 3 4 2 5 5 6 5 7 7 8 8 8 10 4 6 6 15 14 15
12 10 8 5 1 3 4 6 7 6 3 7 5 3 4 2 4 4 3 1 2 2 6 7 8 3 4 6 7 4 5 6 8 6 3 7 7 16 15 15 5 11 12 11 13
13 12 11 12 4 0 5 6 5 4 4 4 5 4 5 5 2 5 5 2 3 4 5 7 6 8 8 7 4 5 5 4 4 8 5 15 3 9 6 15 10 7 9 9 9
15 14 12 1 2 7 8 5 5 5 9 5 6 6 4 7 4 5 4 2 5 3 4 9 6 4 8 6 4 3 5 7 6 2 0 18 5 5 8 4 13 9 12 11 10
16 16 12 7 5 6 4 4 3 6 3 6 4 6 8 6 7 8 6 6 4 2 5 5 8 7 7 4 3 4 2 4 4 2 7 6 6 8 6 8 17 17 13 10 10
17 15 11 8 5 8 3 4 11 10 10 3 2 7 8 5 8 9 7 7 11 9 5 5 7 4 2 7 6 3 6 5 6 3 8 1 6 6 4 9 12 12 10 10 9
19 7 6 11 6 4 6 13 10 13 7 6 11 3 7 10 6 8 8 8 5 6 5 3 5 4 7 3 7 4 3 6 4 5 4 6 7 2 8 7 8 11 11 9 9
7 7 11 17 11 6 11 22 10 9 6 7 11 7 7 10 10 6 7 3 2 5 4 3 7 8 13 4 2 6 3 2 3 5 6 5 5 6 4 6 7 8 8 8 7
3 4 7 20 12 10 22 14 18 8 8 10 15 7 10 8 10 5 5 1 6 7 8 8 1 0 6 2 5 4 2 4 5 5 5 1 6 3 7 6 7 7 7 7 6
3 6 10 18 15 13 24 21 13 17 15 14 5 9 8 5 5 5 4 2 6 5 3 1 2 3 6 9 13 9 8 6 7 6 5 4 17 7 9 9 9 8 6 5 3
3 0 4 15 16 18 13 20 24 12 19 17 11 10 7 9 4 6 5 5 6 7 8 5 2 5 7 5 4 6 7 10 9 3 12 9 11 5 8 8 7 7 4 2 2
4 3 4 4 9 22 21 18 22 22 15 9 6 9 8 13 12 7 6 2 3 2 8 10 8 10 13 8 3 5 11 11 5 3 9 15 22 9 11 4 6 4 2 5 7
3 5 4 4 8 9 21 13 21 20 20 19 8 14 18 8 11 14 7 3 4 7 3 7 10 11 18 20 19 20 19 13 17 18 11 25 20 9 5 3 5 5 5 6 2
7 6 4 3 2 11 5 16 24 22 14 22 25 19 13 23 18 13 16 7 6 3 6 4 3 5 14 18 16 22 22 20 22 24 19 25 34 10 6 4 5 7 4 6 6
3 3 5 7 8 8 12 10 12 19 18 22 25 20 22 27 23 11 4 9 8 13 11 8 4 5 10 8 7 16 22 24 22 20 18 23 28 8 7 7 10 3 7 7 6
Wind_Direction
320 325 329 329 335 333 329 331 328 326 322 323 324 322 323 332 313 260 223 143 173 298 266 279 284 268 244 256 260 273 352 279 277 351 31 119 86 111 207 232 255 145 160 154 145
308 312 321 319 328 328 326 324 327 324 322 321 323 322 320 336 300 270 215 215 240 295 23 339 312 308 237 230 248 145 173 245 253 322 17 23 75 240 147 285 282 71 104 125 141
296 307 312 318 322 326 322 321 320 317 319 320 323 321 317 326 302 67 208 252 239 323 271 289 277 288 311 306 254 240 225 251 286 315 51 4 343 324 5 320 316 91 136 139 150
287 298 306 314 314 317 316 314 315 313 315 320 324 324 318 263 11 193 211 247 274 324 296 271 281 272 265 264 277 248 241 256 293 295 58 337 323 328 331 262 82 101 148 153 168
270 290 300 308 315 313 310 311 308 309 314 317 321 328 345 326 263 203 214 252 267 244 233 272 304 329 313 320 326 314 259 273 283 296 193 243 259 247 269 282 86 91 140 171 182
267 280 291 302 308 306 309 308 303 303 310 315 317 323 315 285 21 159 186 304 251 222 282 279 21 332 292 297 308 311 327 317 308 293 280 230 242 225 258 260 162 128 204 267 213
259 267 284 297 302 305 305 306 301 297 303 307 311 324 290 251 339 6 342 270 306 293 313 14 21 20 332 313 320 320 330 311 284 260 250 261 306 244 258 156 178 229 236 200 214
260 269 280 297 303 307 305 303 298 296 301 301 274 293 254 271 349 285 262 251 232 277 261 360 6 290 226 268 305 302 281 340 275 237 230 113 270 279 306 139 192 228 250 186 211
239 260 274 287 298 305 304 300 290 296 272 210 234 174 273 161 262 141 245 340 327 308 279 266 313 236 302 244 319 246 255 303 298 109 138 119 251 247 180 196 211 225 243 212 107
221 243 264 280 295 308 309 293 283 334 219 191 261 338 266 270 312 48 346 298 277 317 343 267 238 236 311 50 230 312 317 326 323 333 141 197 242 280 289 233 236 239 237 186 114
208 227 252 272 290 319 344 335 22 343 3 287 261 255 284 288 348 246 238 202 257 247 215 282 306 224 240 230 269 325 313 302 297 302 349 227 241 262 264 266 256 237 194 142 116
205 215 229 262 288 327 310 281 73 196 301 252 259 266 259 99 310 253 80 154 185 227 228 297 251 238 268 274 281 309 316 296 293 323 2 323 291 272 270 261 241 230 171 134 119
201 204 197 246 315 339 219 259 41 52 281 279 251 227 105 127 258 167 152 181 205 210 209 188 265 196 20 325 337 272 232 277 302 337 333 341 297 275 284 322 46 76 131 123 131
193 192 179 162 321 222 244 237 69 90 336 265 181 138 119 153 271 193 133 158 254 236 149 215 261 203 235 248 246 283 352 357 346 21 268 40 283 304 281 286 125 115 105 114 107
186 185 170 172 314 250 335 50 38 65 347 223 126 134 131 185 153 228 186 184 230 245 112 248 197 204 225 239 323 278 34 346 314 292 13 281 258 267 276 273 150 120 115 108 111
181 180 153 65 256 259 329 9 49 60 241 275 135 182 175 208 264 146 186 235 283 317 220 233 248 241 216 229 200 303 311 301 261 213 164 258 191 264 271 215 138 132 120 110 98
180 177 162 161 202 206 282 39 45 199 210 227 195 179 196 196 219 170 187 190 207 171 236 284 261 233 189 195 253 217 50 320 332 22 209 346 332 251 293 161 162 147 134 131 129
176 166 209 207 250 138 90 64 227 201 202 317 41 350 200 238 215 198 204 224 226 236 256 234 318 261 30 162 172 171 143 164 266 256 286 352 248 254 58 78 102 117 125 115 112
159 180 193 206 198 152 147 214 202 192 211 193 305 282 271 240 237 192 218 228 252 236 222 293 254 352 139 79 133 232 220 213 277 265 291 213 244 22 91 72 104 128 122 141 148
180 197 197 179 167 160 206 224 198 199 157 200 208 224 227 239 255 206 179 235 237 46 71 279 297 228 277 43 343 159 169 6 323 293 266 244 228 236 153 145 133 133 142 131 125
193 225 175 164 155 187 219 214 209 247 195 191 215 233 222 237 252 246 209 308 39 357 22 12 23 17 10 192 232 293 243 224 186 195 234 277 258 179 143 129 136 131 125 125 96
184 244 170 150 188 203 219 209 207 194 216 229 201 217 217 226 268 262 247 219 71 89 52 27 53 273 246 313 293 261 270 234 203 243 242 184 255 154 157 154 138 140 131 87 109
172 182 242 174 200 207 210 222 223 195 196 222 213 194 192 223 238 230 232 97 135 157 176 182 23 330 291 268 254 230 242 243 256 196 236 232 252 100 122 130 167 135 61 330 207
124 172 284 243 236 211 204 205 211 206 223 198 198 190 196 219 218 213 201 118 42 87 121 104 186 218 246 235 290 290 289 294 282 246 272 234 270 241 272 196 175 151 214 263 250
173 190 184 210 233 225 208 209 207 209 210 199 210 214 195 220 223 234 201 94 45 141 110 142 216 214 242 253 263 276 270 266 267 264 252 274 252 260 224 223 219 221 247 243 134
149 153 184 193 164 218 201 213 213 211 174 211 219 193 191 219 198 215 219 162 187 182 164 180 234 211 255 253 256 267 261 251 250 253 252 263 271 222 250 269 270 254 277 87 91
206 194 159 181 187 197 220 235 222 204 214 211 207 208 211 218 223 243 239 188 183 169 175 166 195 180 256 226 240 258 247 241 248 245 241 248 257 286 260 255 256 171 105 110 92